TimeCEST,TemperatureF,Dew PointF,Humidity,Sea Level PressureIn,VisibilityMPH,Wind Direction,Wind SpeedMPH,Gust SpeedMPH,PrecipitationIn,Events,Conditions,WindDirDegrees,DateUTC
12:00 AM,66.2,62.6,88,29.98,6.2,Variable,1.2,-,N/A,,Partly Cloudy,0,2012-09-17 22:00:00
12:30 AM,68.0,62.6,83,29.98,-9999.0,Variable,1.2,-,N/A,,Clear,0,2012-09-17 22:30:00
1:00 AM,66.2,62.6,88,29.98,-9999.0,NE,1.2,-,N/A,,Clear,50,2012-09-17 23:00:00
1:30 AM,66.2,62.6,88,29.98,-9999.0,NNE,1.2,-,N/A,,Clear,30,2012-09-17 23:30:00
2:00 AM,65,58,73,29.99,12,Calm,Calm,,,,Overcast,,2012-09-18 00:00:00
2:00 AM,66.2,62.6,88,29.98,-9999.0,Calm,Calm,-,N/A,,Clear,0,2012-09-18 00:00:00
2:30 AM,66.2,62.6,88,29.98,-9999.0,Calm,Calm,-,N/A,,Clear,0,2012-09-18 00:30:00
3:00 AM,66.2,62.6,88,29.98,-9999.0,Calm,Calm,-,N/A,,Clear,0,2012-09-18 01:00:00
3:30 AM,64.4,60.8,88,29.98,-9999.0,Calm,Calm,-,N/A,,Clear,0,2012-09-18 01:30:00
4:00 AM,64.4,60.8,88,29.98,-9999.0,Calm,Calm,-,N/A,,Clear,0,2012-09-18 02:00:00
4:30 AM,64.4,60.8,88,29.95,-9999.0,NE,2.3,-,N/A,,Clear,50,2012-09-18 02:30:00
5:00 AM,64.4,60.8,88,29.95,-9999.0,NNE,1.2,-,N/A,,Clear,20,2012-09-18 03:00:00
5:30 AM,64.4,60.8,88,29.95,6.2,NNE,1.2,-,N/A,,Partly Cloudy,30,2012-09-18 03:30:00
6:00 AM,64.4,60.8,88,29.95,6.2,NNE,2.3,-,N/A,,Partly Cloudy,20,2012-09-18 04:00:00
6:30 AM,64.4,60.8,88,29.95,6.2,Variable,1.2,-,N/A,,Partly Cloudy,0,2012-09-18 04:30:00
7:00 AM,62.6,59.0,88,29.95,6.2,Variable,1.2,-,N/A,,Partly Cloudy,0,2012-09-18 05:00:00
7:30 AM,62.6,59.0,88,29.95,6.2,Variable,1.2,-,N/A,Fog,Unknown,0,2012-09-18 05:30:00
8:00 AM,62,55,71,29.95,2,North,1.2,,,Fog,Light Fog,10,2012-09-18 06:00:00
8:00 AM,62.6,57.2,82,29.95,6.2,Calm,Calm,-,N/A,Fog,Unknown,0,2012-09-18 06:00:00
8:30 AM,64.4,59.0,83,29.95,6.2,Variable,2.3,-,N/A,Fog,Unknown,0,2012-09-18 06:30:00
9:00 AM,68.0,62.6,83,29.95,6.2,Variable,1.2,-,N/A,,Partly Cloudy,0,2012-09-18 07:00:00
9:30 AM,71.6,64.4,78,29.95,6.2,Variable,2.3,-,N/A,,Partly Cloudy,0,2012-09-18 07:30:00
10:00 AM,75.2,66.2,73,29.95,6.2,Calm,Calm,-,N/A,,Partly Cloudy,0,2012-09-18 08:00:00
10:30 AM,78.8,68.0,69,29.95,6.2,Variable,1.2,-,N/A,,Partly Cloudy,0,2012-09-18 08:30:00
11:00 AM,78.8,66.2,65,29.95,6.2,Variable,1.2,-,N/A,,Partly Cloudy,0,2012-09-18 09:00:00
11:30 AM,80.6,68.0,65,29.95,6.2,SW,3.5,-,N/A,,Partly Cloudy,230,2012-09-18 09:30:00
12:00 PM,78.8,69.8,74,29.95,6.2,SW,6.9,-,N/A,,Partly Cloudy,230,2012-09-18 10:00:00
12:30 PM,78.8,68.0,69,29.95,6.2,SW,10.4,-,N/A,,Partly Cloudy,230,2012-09-18 10:30:00
1:00 PM,78.8,68.0,69,29.95,6.2,WSW,10.4,-,N/A,,Partly Cloudy,240,2012-09-18 11:00:00
1:30 PM,80.6,69.8,70,29.95,6.2,WSW,12.7,-,N/A,,Partly Cloudy,240,2012-09-18 11:30:00
2:00 PM,80,64,48,29.96,19,WSW,9.2,,,,Partly Cloudy,240,2012-09-18 12:00:00
2:00 PM,80.6,68.0,65,29.95,6.2,SW,8.1,-,N/A,,Partly Cloudy,230,2012-09-18 12:00:00
2:30 PM,80.6,62.6,54,29.95,6.2,SW,6.9,-,N/A,,Partly Cloudy,220,2012-09-18 12:30:00
3:00 PM,82.4,64.4,54,29.92,-9999.0,SW,6.9,-,N/A,,Clear,230,2012-09-18 13:00:00
3:30 PM,82.4,62.6,51,29.92,-9999.0,WSW,5.8,-,N/A,,Clear,240,2012-09-18 13:30:00
4:00 PM,82.4,60.8,48,29.92,-9999.0,SW,5.8,-,N/A,,Clear,230,2012-09-18 14:00:00
4:30 PM,82.4,62.6,51,29.92,-9999.0,SW,4.6,-,N/A,,Clear,230,2012-09-18 14:30:00
5:00 PM,82.4,59.0,45,29.89,-9999.0,WSW,4.6,-,N/A,,Clear,240,2012-09-18 15:00:00
5:30 PM,82.4,62.6,51,29.89,-9999.0,SW,8.1,-,N/A,,Clear,230,2012-09-18 15:30:00
6:00 PM,80.6,68.0,65,29.89,-9999.0,WSW,9.2,-,N/A,,Clear,240,2012-09-18 16:00:00
6:30 PM,78.8,68.0,69,29.89,-9999.0,SW,6.9,-,N/A,,Clear,220,2012-09-18 16:30:00
7:00 PM,78.8,66.2,65,29.92,-9999.0,SW,6.9,-,N/A,,Clear,230,2012-09-18 17:00:00
7:30 PM,77.0,69.8,78,29.92,6.2,SW,8.1,-,N/A,,Partly Cloudy,230,2012-09-18 17:30:00
8:00 PM,77,68,66,29.93,12,SW,9.2,,,,Overcast,230,2012-09-18 18:00:00
8:00 PM,77.0,71.6,83,29.92,6.2,SW,6.9,-,N/A,,Partly Cloudy,230,2012-09-18 18:00:00
8:30 PM,77.0,69.8,78,29.92,6.2,SW,4.6,-,N/A,,Partly Cloudy,220,2012-09-18 18:30:00
9:00 PM,77.0,71.6,83,29.92,6.2,SW,3.5,-,N/A,,Partly Cloudy,220,2012-09-18 19:00:00
9:30 PM,77.0,71.6,83,29.92,6.2,SSW,1.2,-,N/A,,Partly Cloudy,210,2012-09-18 19:30:00
10:00 PM,77.0,71.6,83,29.92,6.2,SSE,1.2,-,N/A,,Scattered Clouds,150,2012-09-18 20:00:00
10:30 PM,75.2,69.8,83,29.92,6.2,SSE,1.2,-,N/A,,Scattered Clouds,150,2012-09-18 20:30:00
11:00 PM,75.2,68.0,78,29.92,6.2,Variable,1.2,-,N/A,,Scattered Clouds,0,2012-09-18 21:00:00
11:30 PM,73.4,68.0,83,29.92,6.2,ENE,3.5,-,N/A,,Partly Cloudy,60,2012-09-18 21:30:00